sat.trackr.live / text

‹ back to catalog

STARLINK-34367

NORAD 64452 · 2025-130Q

PAYLOAD ACTIVE UNKNOWN

§ Identity

Operator
Country
US
Launch date
2025-06-18
Launch site
AFETR
Launch vehicle
Mass (kg)
RCS (m²)

Purposes: comms

External: N2YO · Heavens-Above · Gunter

§ Orbital elements

Epoch: 2026-05-25T04:00:03.998880Z

Period
94.11 min
Inclination
53.1584°
Eccentricity
0.0001427
Mean motion
15.30189594 rev/d
Perigee alt
474.3 km
Apogee alt
476.2 km
Semi-major
6,853.4 km
B*
1.2975e-4
RAAN
93.1224°
Arg perigee
90.2716°
Mean anomaly
306.2132°
Rev number
586

§ Raw data

STARLINK-343671 64452U 25130Q   26145.16671295  .00003484  00000+0  12975-3 0  99922 64452  53.1584  93.1224 0001427  90.2716 306.2132 15.30189594  5860

JSON: /api/v1/satellites/64452 · /tle

For live sub-satellite position, see the globe view (requires WebGL).

§ Visibility from observer

Set your observer location to see the next 7 days of passes ≥ 10°. The values pass through the URL so the page stays shareable.

No JS? Fill the form by hand. The geolocation button needs JavaScript.